Showing default

GLOBAL-18, 52196

Orbit data source: Space-Track

GLOBAL-18, 52196 is a payload satellite owned by BlackSky Global (US) in LEO that was launched on Sat, 02 Apr 2022 UTC via an ELECTRON launch vehicle from the Rocket Lab Launch Complex (RLLC). Payload-class satellites include a variety of spacecraft equipped with specific instruments for various scientific and technological missions. These include communications satellites like Starlink; space stations such as the ISS; scientific satellites like the Hubble; Earth observation satellites from companies like Planet Labs, Umbra, and HawkEye 360; GPS; miniature CubeSats for education and research; and military/defense satellites.

Loading next visibility...
Identifier
52196, 2022-034B
Orbit
LEO
Country
Flag of USUS
Related business
Manufacturer
LeoStella
Mission
Operational Commercial Imaging
Bus & Motor
BSKY, Unknown motor
Mass
55 kg wet, ~50 kg dry
Launch date (UTC)
2022-04-02 (4 years ago)
Launch vehicle
ELECTRON
Launch site
Rocket Lab Launch Complex (RLLC)
Object type
Payload
Rocket body
Debris
Shape & HBR
Box, 1.0 m
Radar Cross Section
0.625 m², Medium (>0.1 m² and < 1m²)

Expand to show TLE details & history
Last TLE update: 2 days ago

TLE from 2 days ago
0 GLOBAL-18
1 52196U 22034B   26171.35717741  .00016854  00000-0  34329-3 0  9994
2 52196  52.9807 241.4882 0003224 296.5076  63.5599 15.46390120237450
Epoch: 2026-06-20T08:34Z
TLE epoch observation values (Epoch: 2026-06-20T08:34:20.128Z)
Latitude
0.00002°
Longitude
-155.66861°
Altitude
427.207 km
Speed
7.657 km/s
True Right ascension
16h 05m 57s
True Declination
0° 00' 00"
Sunlit
Object was in full shadow at epoch
Visualization orbit readout
Latitude
Unknown
Longitude
Unknown
Altitude
Unknown
Speed
Unknown
Apparent Right ascension
Unknown
Apparent Declination
Unknown
Sunlit
N/A
Visualization observer readout
Local Sidereal Time
21:24:59
Azimuth
Unknown
Elevation
Unknown
Doppler factor
Unknown
Orbital elements
Apogee altitude
429.778 km
Perigee altitude
425.39 km
Semi-major axis
6,805.721 km
Eccentricity
0.00032
Inclination
52.9807°
RAAN
241.4882°
Arg. of periapsis
296.5076°
True anomaly
63.59299°
Mean anomaly
63.5599°
Eccentric anomaly
63.57644°
Mean motion
3.86573 °/min
Orbital period
93.13 mins
BSTAR
0.00034329
Loading maneuver chart data...
Computing Atmospheric mass density...
Loading historical data...
Loading historical data...
Loading historical data...
Loading historical data...
Loading historical data...
Loading historical data...
Loading historical data...

Documentation

Showing up to 5 results
|